Location: La Comballaz
(46.3780°N, 7.0817°E)
Time: 01:28:05
(UTC+00:00)

ATLAS CENTAUR R/B - Pass Details

Date: 09 April 2020
Orbit: 471 x 675 km, 64.7° (Epoch: 30 May)

Event Time Altitude Azimuth Distance (km) Brightness Sun altitude
Rises 20:16:25 0° 330° (NNW) 2,687 6.0 -20.3°
Reaches altitude 10° 20:19:00 10° 344° (NNW) 1,756 4.6 -20.6°
Maximum altitude 20:22:11 24° 39° (NE) 1,090 2.8 -21.0°
Enters shadow 20:22:23 23° 45° (NE) 1,091 2.7 -21.1°
